Stündliche Wetter Bolshie Malosheviny

Heute, 17 Juni, Donnerstag

Zeit Temperatur Niederschläge Wind Luftdruck Luftfeuchtigkeit
00:00 +12°C° 0 mm 1 m/S 751 mmHg 73%
01:00 +11°C° 0 mm 1 m/S 752 mmHg 73%
02:00 +11°C° 0 mm 1 m/S 752 mmHg 74%
03:00 +11°C° 0 mm 0 m/S 752 mmHg 71%
04:00 +12°C° 0 mm 0 m/S 753 mmHg 69%
05:00 +13°C° 0 mm 0 m/S 753 mmHg 66%
06:00 +16°C° 0 mm 1 m/S 753 mmHg 58%
07:00 +19°C° 0 mm 1 m/S 753 mmHg 50%
08:00 +21°C° 0 mm 1 m/S 753 mmHg 43%
09:00 +21°C° 0 mm 2 m/S 754 mmHg 39%
10:00 +23°C° 0 mm 2 m/S 754 mmHg 36%
11:00 +25°C° 0 mm 2 m/S 754 mmHg 33%
12:00 +25°C° 0 mm 3 m/S 754 mmHg 33%
13:00 +26°C° 0 mm 3 m/S 754 mmHg 32%
14:00 +26°C° 0 mm 3 m/S 754 mmHg 32%
15:00 +26°C° 0 mm 2 m/S 754 mmHg 35%
16:00 +26°C° 0 mm 2 m/S 754 mmHg 38%
17:00 +25°C° 0 mm 2 m/S 754 mmHg 41%
18:00 +23°C° 0 mm 2 m/S 754 mmHg 50%
19:00 +20°C° 0 mm 2 m/S 754 mmHg 60%
20:00 +19°C° 0 mm 1 m/S 754 mmHg 69%
21:00 +18°C° 0 mm 1 m/S 754 mmHg 71%
22:00 +15°C° 0 mm 0 m/S 754 mmHg 73%
23:00 +14°C° 0 mm 0 m/S 755 mmHg 74%

Morgen, 18 Juni, Freitag

Zeit Temperatur Niederschläge Wind Luftdruck Luftfeuchtigkeit
00:00 +13°C° 0 mm 0 m/S 755 mmHg 76%
01:00 +13°C° 0 mm 0 m/S 755 mmHg 77%
02:00 +14°C° 0 mm 1 m/S 755 mmHg 78%
03:00 +15°C° 0 mm 1 m/S 755 mmHg 76%
04:00 +15°C° 0 mm 1 m/S 755 mmHg 75%
05:00 +16°C° 0 mm 1 m/S 755 mmHg 73%
06:00 +19°C° 0 mm 1 m/S 755 mmHg 65%
07:00 +22°C° 0 mm 1 m/S 755 mmHg 57%
08:00 +24°C° 0 mm 2 m/S 755 mmHg 49%
09:00 +25°C° 0 mm 2 m/S 755 mmHg 45%
10:00 +26°C° 0 mm 2 m/S 755 mmHg 41%
11:00 +28°C° 0 mm 2 m/S 755 mmHg 36%
12:00 +28°C° 0 mm 3 m/S 754 mmHg 35%
13:00 +29°C° 0 mm 3 m/S 754 mmHg 34%
14:00 +30°C° 0 mm 3 m/S 754 mmHg 32%
15:00 +29°C° 0 mm 3 m/S 753 mmHg 35%
16:00 +29°C° 0 mm 3 m/S 753 mmHg 38%
17:00 +29°C° 0 mm 3 m/S 753 mmHg 41%
18:00 +27°C° 0 mm 2 m/S 753 mmHg 51%
19:00 +24°C° 0 mm 2 m/S 753 mmHg 61%
20:00 +22°C° 0 mm 1 m/S 753 mmHg 71%
21:00 +20°C° 0 mm 2 m/S 753 mmHg 75%
22:00 +19°C° 0 mm 2 m/S 753 mmHg 78%
23:00 +18°C° 0 mm 2 m/S 753 mmHg 82%

übermorgen, 19 Juni, Samstag

Zeit Temperatur Niederschläge Wind Luftdruck Luftfeuchtigkeit
00:00 +17°C° 0 mm 2 m/S 754 mmHg 84%
01:00 +17°C° 0 mm 2 m/S 754 mmHg 85%
02:00 +16°C° 0 mm 2 m/S 754 mmHg 87%
03:00 +17°C° 0 mm 2 m/S 754 mmHg 84%
04:00 +18°C° 0 mm 2 m/S 754 mmHg 81%
05:00 +19°C° 0 mm 2 m/S 754 mmHg 79%
06:00 +21°C° 0 mm 2 m/S 754 mmHg 71%
07:00 +24°C° 0 mm 3 m/S 754 mmHg 63%
08:00 +26°C° 0 mm 3 m/S 754 mmHg 55%
09:00 +27°C° 0 mm 3 m/S 754 mmHg 50%
10:00 +28°C° 0 mm 3 m/S 754 mmHg 44%
11:00 +29°C° 0 mm 3 m/S 753 mmHg 39%
12:00 +30°C° 0 mm 3 m/S 753 mmHg 37%
13:00 +30°C° 0 mm 3 m/S 753 mmHg 35%
14:00 +31°C° 0 mm 3 m/S 752 mmHg 33%
15:00 +30°C° 0 mm 3 m/S 752 mmHg 35%
16:00 +30°C° 0 mm 3 m/S 752 mmHg 38%
17:00 +30°C° 0 mm 2 m/S 752 mmHg 40%
18:00 +28°C° 0 mm 2 m/S 752 mmHg 50%
19:00 +25°C° 0 mm 2 m/S 752 mmHg 60%
20:00 +23°C° 0 mm 1 m/S 752 mmHg 70%
21:00 +22°C° 0 mm 1 m/S 752 mmHg 74%
22:00 +21°C° 0 mm 1 m/S 752 mmHg 78%
23:00 +19°C° 0 mm 2 m/S 752 mmHg 82%

20 Juni, Sonntag

Zeit Temperatur Niederschläge Wind Luftdruck Luftfeuchtigkeit
00:00 +18°C° 0 mm 2 m/S 752 mmHg 84%
01:00 +18°C° 0 mm 2 m/S 752 mmHg 86%
02:00 +17°C° 0 mm 2 m/S 752 mmHg 88%
03:00 +19°C° 0 mm 1 m/S 752 mmHg 86%
04:00 +20°C° 0 mm 1 m/S 752 mmHg 83%
05:00 +21°C° 0 mm 1 m/S 753 mmHg 81%
06:00 +21°C° 0 mm 2 m/S 752 mmHg 72%
07:00 +24°C° 0 mm 2 m/S 752 mmHg 64%
08:00 +26°C° 0 mm 2 m/S 752 mmHg 56%
09:00 +27°C° 0 mm 3 m/S 752 mmHg 50%
10:00 +28°C° 0 mm 3 m/S 752 mmHg 45%
11:00 +29°C° 0 mm 3 m/S 752 mmHg 39%
12:00 +30°C° 0 mm 3 m/S 751 mmHg 38%
13:00 +31°C° 0 mm 3 m/S 751 mmHg 36%
14:00 +31°C° 0 mm 3 m/S 751 mmHg 35%
15:00 +31°C° 0 mm 3 m/S 751 mmHg 37%
16:00 +31°C° 0 mm 3 m/S 750 mmHg 40%
17:00 +31°C° 0 mm 3 m/S 750 mmHg 43%
18:00 +29°C° 0 mm 2 m/S 750 mmHg 52%
19:00 +27°C° 0 mm 2 m/S 750 mmHg 61%
20:00 +25°C° 0 mm 2 m/S 750 mmHg 69%
21:00 +24°C° 0 mm 2 m/S 750 mmHg 71%
22:00 +24°C° 0 mm 2 m/S 750 mmHg 72%
23:00 +23°C° 0 mm 2 m/S 750 mmHg 74%

21 Juni, Montag

Zeit Temperatur Niederschläge Wind Luftdruck Luftfeuchtigkeit
00:00 +21°C° 0.1 mm 2 m/S 750 mmHg 79%
01:00 +20°C° 0.1 mm 2 m/S 750 mmHg 84%
02:00 +19°C° 0.1 mm 2 m/S 751 mmHg 90%
03:00 +20°C° 0.1 mm 2 m/S 751 mmHg 88%
04:00 +20°C° 0.1 mm 2 m/S 751 mmHg 87%
05:00 +21°C° 0.1 mm 2 m/S 751 mmHg 86%
06:00 +24°C° 0 mm 2 m/S 751 mmHg 78%
07:00 +26°C° 0 mm 2 m/S 751 mmHg 70%
08:00 +27°C° 0 mm 2 m/S 751 mmHg 62%
09:00 +29°C° 0 mm 2 m/S 751 mmHg 56%
10:00 +30°C° 0 mm 2 m/S 751 mmHg 51%
11:00 +31°C° 0 mm 3 m/S 751 mmHg 45%
12:00 +30°C° 0 mm 2 m/S 750 mmHg 50%
13:00 +29°C° 0 mm 2 m/S 750 mmHg 55%
14:00 +28°C° 0 mm 1 m/S 750 mmHg 61%
15:00 +28°C° 0 mm 1 m/S 750 mmHg 61%
16:00 +28°C° 0 mm 1 m/S 750 mmHg 62%
17:00 +28°C° 0 mm 1 m/S 750 mmHg 62%
18:00 +27°C° 0 mm 1 m/S 750 mmHg 66%
19:00 +26°C° 0 mm 1 m/S 750 mmHg 69%
20:00 +25°C° 0 mm 1 m/S 750 mmHg 72%
21:00 +25°C° 0 mm 1 m/S 750 mmHg 74%
22:00 +24°C° 0 mm 1 m/S 750 mmHg 75%
23:00 +24°C° 0 mm 1 m/S 751 mmHg 76%

22 Juni, Dienstag

Zeit Temperatur Niederschläge Wind Luftdruck Luftfeuchtigkeit
00:00 +23°C° 0 mm 1 m/S 751 mmHg 79%
01:00 +22°C° 0 mm 1 m/S 751 mmHg 83%
02:00 +22°C° 0 mm 1 m/S 751 mmHg 86%
03:00 +22°C° 0 mm 1 m/S 751 mmHg 84%
04:00 +23°C° 0 mm 1 m/S 751 mmHg 82%
05:00 +23°C° 0 mm 1 m/S 751 mmHg 80%
06:00 +23°C° 0 mm 0 m/S 752 mmHg 72%
07:00 +25°C° 0 mm 0 m/S 752 mmHg 64%
08:00 +28°C° 0 mm 0 m/S 752 mmHg 56%
09:00 +29°C° 0 mm 0 m/S 752 mmHg 51%
10:00 +30°C° 0 mm 0 m/S 752 mmHg 46%
11:00 +34°C° 0 mm 1 m/S 752 mmHg 41%
12:00 +34°C° 0 mm 1 m/S 752 mmHg 39%
13:00 +35°C° 0 mm 1 m/S 751 mmHg 37%
14:00 +35°C° 0 mm 1 m/S 751 mmHg 34%
15:00 +35°C° 0 mm 1 m/S 751 mmHg 37%
16:00 +34°C° 0 mm 1 m/S 751 mmHg 39%
17:00 +34°C° 0 mm 1 m/S 751 mmHg 41%
18:00 +31°C° 0 mm 1 m/S 751 mmHg 50%
19:00 +29°C° 0 mm 1 m/S 751 mmHg 59%
20:00 +27°C° 0 mm 1 m/S 751 mmHg 68%
21:00 +26°C° 0 mm 1 m/S 751 mmHg 71%
22:00 +25°C° 0 mm 1 m/S 751 mmHg 73%
23:00 +24°C° 0 mm 1 m/S 752 mmHg 76%
Mehr zeigen

Wir brauchen deine Erlaubnis

Meteoprog und unser Service Anbieter werden persönliche Daten aufbewahren, so wie Cookies, Geräte Bezeichnung oder ähnliche Technologien von deinem Gerät und Prozess, so wie Persönliche Daten Inhalte und Werbungen, genauso wie social Media und den Verkehr zu analysieren.

  • Aufbewahrung und/oder Zugang zu deiner Geräte Informationen.

    Cookies, Geräte Bezeichnung oder andere Informationen, können aufbewahrt oder Zugang zu deinem Gerät erhalten, für den Grund, der oben angegeben wird.

  • Personalisierte Werbung und Inhalte, Messungen, Einblick in das Publikum und Produkt Entwicklung.

    Werbungen und Inhalte können personalisiert werden, basierend auf ein Profil. Mehr Daten können besser personalisierte Werbungen und Inhalte hinzufügen. Werbung und Inhalte können gezeigt und gemessen werden. Einblicke über das Publikum, welche die Werbung gesehen haben und den Inhalt, können abgeleitet werden. So wie Daten können genutzt werden, um es zu verbessern oder die Benutzer Erfahrung zu verbessern das System und die Software.

Wenn du “Ich stimme zu” klickst, erlaubst du uns, die Cookies zu benutzen die Geräte Bezeichnung, den Web oder ähnliche Technologien zu benutzen. Deine Settings, können in deinem Gerät bei deinem Browser geändert werden.

Für den bestimmten Zweck, berechtigten Interessen beruhen darauf, mehr als auf den Inhalt. Du kannst mehr darüber in unseren Privaten und Cookie Politik lesen.